Location: Waldport
(44.4270°N, 124.0680°W)
Time: 18:42:31
(UTC-07:00)

Amateur Radio Satellites - All Passes

Search period start: 31 July 2014 18:12
Search period end: 01 August 2014 18:12
Location: Waldport, 44.4270°N, 124.0680°W

Satellite Date Start Highest point End Downlink Frequencies (MHz)
Time Altitude Azimuth
AO-7 31 Jul 18:21:33 18:27:56 24° 268° (W) 18:34:23 29.400 - 29.500 MHz
STRAND 1 31 Jul 18:49:51 18:52:28 14° 89° (E) 18:55:05 ?
SO-67 31 Jul 19:02:42 19:05:47 30° 71° (ENE) 19:08:52 435.3500 MHz FM
Hamsat 31 Jul 19:03:35 19:07:26 36° 263° (W) 19:11:20 145.90 MHz
SO-50 31 Jul 19:12:37 19:15:32 16° 33° (NNE) 19:18:27 436.795 FM
JAS-2 31 Jul 19:24:53 19:32:18 48° 262° (W) 19:39:13 435.800 - 435.900 CW/SSB, 435.910 FM
OPAL 31 Jul 19:41:10 19:41:58 10° 308° (NW) 19:42:46 ?
HO-68 31 Jul 19:43:32 19:48:41 22° 54° (NE) 19:53:50 435.675 MHz FM
RS-15 31 Jul 19:52:01 20:01:28 31° 23° (NNE) 20:11:04 29.354 - 29.394 USB, Beacon 29.352 USB
STRAND 1 31 Jul 20:27:07 20:32:14 75° 286° (WNW) 20:37:19 ?
MaSat-1 31 Jul 20:34:37 20:38:12 28° 105° (ESE) 20:42:14 437.345 MHz
SO-67 31 Jul 20:36:39 20:38:56 17° 267° (W) 20:41:14 435.3500 MHz FM
Oscar 11 31 Jul 20:41:13 20:42:11 11° 59° (ENE) 20:43:10 145.825 FM, Beacon 2401.500 USB
SO-50 31 Jul 20:52:08 20:56:54 74° 53° (NE) 21:01:43 436.795 FM
UOSAT-12 31 Jul 20:56:43 20:59:16 14° 31° (NNE) 21:01:49 437.025 FM, 437.400 FM
HO-68 31 Jul 21:28:22 21:35:33 86° 253° (WSW) 21:42:46 435.675 MHz FM
UKube-1 31 Jul 21:31:36 21:35:56 68° 73° (ENE) 21:40:18 145.840 MHz, 145.915 MHz
RS-15 31 Jul 22:04:59 22:16:02 74° 52° (NE) 22:27:27 29.354 - 29.394 USB, Beacon 29.352 USB
STRAND 1 31 Jul 22:09:00 22:10:33 11° 305° (NW) 22:12:05 ?
MaSat-1 31 Jul 22:11:20 22:15:21 36° 307° (NW) 22:19:53 437.345 MHz
ISS 31 Jul 22:11:36 22:13:36 15° 133° (SE) 22:15:37 145.800 FM
Oscar 11 31 Jul 22:13:23 22:17:41 87° 256° (WSW) 22:22:02 145.825 FM, Beacon 2401.500 USB
Oscar 10/S400 31 Jul 22:20:13 22:40:50 51° 158° (SSE) 06:04:07 145.825 - 145.975 CW/USB, Beacon 145.810 USB
SO-50 31 Jul 22:34:10 22:36:55 15° 251° (WSW) 22:39:41 436.795 FM
UOSAT-12 31 Jul 22:35:41 22:40:24 62° 52° (NE) 22:45:02 437.025 FM, 437.400 FM
FUNcube-1 31 Jul 22:43:45 22:48:01 74° 75° (ENE) 22:52:14 145.950 - 145.970 MHz USB
UKube-1 31 Jul 23:10:50 23:12:36 12° 270° (W) 23:14:23 145.840 MHz, 145.915 MHz
HO-68 31 Jul 23:20:06 23:24:14 16° 272° (W) 23:28:24 435.675 MHz FM
Sapphire 31 Jul 23:37:48 23:41:30 19° 106° (ESE) 23:45:12 437.095 MHz 1200 baud AX-25 AFSK
ISS 31 Jul 23:46:35 23:49:55 80° 330° (NNW) 23:53:17 145.800 FM
PCSat 01 Aug 00:09:19 00:14:15 38° 112° (ESE) 00:19:13 145.825 MHz
UOSAT-12 01 Aug 00:16:53 00:20:05 18° 250° (WSW) 00:23:15 437.025 FM, 437.400 FM
RS-15 01 Aug 00:18:06 00:27:32 34° 254° (WSW) 00:37:18 29.354 - 29.394 USB, Beacon 29.352 USB
FUNcube-1 01 Aug 00:24:14 00:24:55 10° 271° (W) 00:25:35 145.950 - 145.970 MHz USB
AO-40 01 Aug 00:51:15 05:33:43 32° 152° (SSE) 07:11:08 Beacon 2401.320
Sapphire 01 Aug 01:18:59 01:24:22 67° 304° (NW) 01:29:47 437.095 MHz 1200 baud AX-25 AFSK
ISS 01 Aug 01:24:06 01:27:00 26° 349° (N) 01:29:54 145.800 FM
Oscar 19 01 Aug 01:37:29 01:40:10 14° 89° (E) 01:42:51 437.125 CW, 437.150 USB
PCSat 01 Aug 01:52:41 01:57:40 37° 311° (NW) 02:02:42 145.825 MHz
Oscar 16 01 Aug 02:05:12 02:09:32 27° 94° (E) 02:13:52 437.025 USB, Beacon 2401.1428
ITAMSAT 1 01 Aug 02:33:23 02:37:19 21° 93° (E) 02:41:12 435.822 SSB
Uribyol 2 01 Aug 02:51:27 02:56:06 33° 96° (E) 03:00:42 436.500 FM
AO-27 01 Aug 02:53:01 02:57:40 33° 96° (E) 03:02:17 436.795 MHz FM
ISS 01 Aug 03:01:33 03:04:25 25° 10° (N) 03:07:18 145.800 FM
AO-Echo 01 Aug 03:04:58 03:09:47 43° 98° (E) 03:14:24 ?
Sapphire 01 Aug 03:05:41 03:08:51 16° 325° (NW) 03:12:02 437.095 MHz 1200 baud AX-25 AFSK
TMSAT-1 01 Aug 03:09:12 03:12:05 15° 89° (E) 03:14:56 436.925 FM
Oscar 19 01 Aug 03:14:54 03:20:06 77° 286° (WNW) 03:25:16 437.125 CW, 437.150 USB
JAS-1B 01 Aug 03:16:11 03:24:53 43° 94° (E) 03:32:18 435.800 - 435.900 CW/SSB
Gurwin Techsat 1B 01 Aug 03:34:24 03:39:12 34° 96° (E) 03:43:58 435.225 FM
OPAL 01 Aug 03:37:35 03:42:03 36° 65° (ENE) 03:46:35 ?
PCSat 01 Aug 03:42:15 03:42:46 10° 334° (NNW) 03:43:16 145.825 MHz
Oscar 16 01 Aug 03:44:11 03:49:01 41° 292° (WNW) 03:53:51 437.025 USB, Beacon 2401.1428
ITAMSAT 1 01 Aug 04:12:05 04:17:06 51° 290° (WNW) 04:22:05 435.822 SSB
AO-7 01 Aug 04:26:51 04:33:07 23° 91° (E) 04:39:19 29.400 - 29.500 MHz
Uribyol 2 01 Aug 04:30:57 04:35:33 34° 294° (WNW) 04:40:08 436.500 FM
AO-27 01 Aug 04:32:31 04:37:10 34° 294° (WNW) 04:41:47 436.795 MHz FM
ISS 01 Aug 04:38:11 04:41:32 73° 29° (NNE) 04:44:54 145.800 FM
AO-Echo 01 Aug 04:44:15 04:48:17 25° 297° (WNW) 04:52:14 ?
TMSAT-1 01 Aug 04:47:17 04:52:36 76° 286° (WNW) 04:57:52 436.925 FM
MaSat-1 01 Aug 04:51:06 04:54:41 18° 43° (NE) 04:58:12 437.345 MHz
Oscar 19 01 Aug 04:56:48 04:58:34 12° 304° (NW) 05:00:21 437.125 CW, 437.150 USB
Uosat F 01 Aug 05:04:57 05:09:36 37° 97° (E) 05:14:12 435.120 FM
JAS-1B 01 Aug 05:06:36 05:15:29 50° 297° (WNW) 05:23:09 435.800 - 435.900 CW/SSB
KITSAT 1 01 Aug 05:06:45 05:13:16 28° 106° (ESE) 05:19:47 435.175 FM
Gurwin Techsat 1B 01 Aug 05:14:23 05:19:09 34° 294° (WNW) 05:23:53 435.225 FM
OPAL 01 Aug 05:16:43 05:20:59 29° 262° (W) 05:25:18 ?
STRAND 1 01 Aug 06:06:48 06:11:00 26° 64° (ENE) 06:15:11 ?
ISS 01 Aug 06:15:38 06:17:55 17° 226° (SW) 06:20:12 145.800 FM
AO-7 01 Aug 06:18:25 06:26:47 81° 291° (WNW) 06:35:04 29.400 - 29.500 MHz
MaSat-1 01 Aug 06:27:27 06:32:47 90° 251° (WSW) 06:37:47 437.345 MHz
TMSAT-1 01 Aug 06:29:42 06:31:37 12° 305° (NW) 06:33:32 436.925 FM
JAS-2 01 Aug 06:34:24 06:38:46 22° 90° (E) 06:42:51 435.800 - 435.900 CW/SSB, 435.910 FM
Uosat F 01 Aug 06:43:58 06:48:16 29° 295° (WNW) 06:52:32 435.120 FM
Hamsat 01 Aug 06:47:21 06:51:18 34° 97° (E) 06:55:15 145.90 MHz
JAS-1B 01 Aug 06:59:19 07:03:35 14° 320° (NW) 07:07:38 435.800 - 435.900 CW/SSB
KITSAT 1 01 Aug 06:59:52 07:07:57 73° 306° (NW) 07:16:05 435.175 FM
PCSat 01 Aug 07:13:36 07:15:33 12° 29° (NNE) 07:17:29 145.825 MHz
Saudisat 1A 01 Aug 07:18:32 07:22:51 57° 121° (ESE) 07:27:13 436.775 MHz
STRAND 1 01 Aug 07:45:03 07:49:57 44° 261° (W) 07:54:52 ?
SO-67 01 Aug 07:57:48 08:00:53 29° 96° (E) 08:03:57 435.3500 MHz FM
MaSat-1 01 Aug 08:07:02 08:09:14 13° 262° (W) 08:11:23 437.345 MHz
AO-7 01 Aug 08:12:33 08:18:23 22° 312° (NW) 08:24:11 29.400 - 29.500 MHz
JAS-2 01 Aug 08:18:40 08:24:22 52° 291° (WNW) 08:29:31 435.800 - 435.900 CW/SSB, 435.910 FM
Sapphire 01 Aug 08:22:27 08:27:00 26° 44° (NE) 08:31:32 437.095 MHz 1200 baud AX-25 AFSK
Hamsat 01 Aug 08:23:38 08:27:07 24° 293° (WNW) 08:30:35 145.90 MHz
PCSat 01 Aug 08:55:12 09:00:25 45° 52° (NE) 09:05:36 145.825 MHz
HO-68 01 Aug 08:56:10 09:00:18 16° 88° (E) 09:04:25 435.675 MHz FM
KITSAT 1 01 Aug 08:58:29 09:04:52 25° 330° (NNW) 09:11:16 435.175 FM
Saudisat 1A 01 Aug 08:59:17 09:02:47 22° 320° (NW) 09:06:17 436.775 MHz
SO-67 01 Aug 09:31:21 09:33:46 18° 293° (WNW) 09:36:11 435.3500 MHz FM
Oscar 11 01 Aug 10:00:40 10:03:15 15° 91° (E) 10:05:49 145.825 FM, Beacon 2401.500 USB
Sapphire 01 Aug 10:05:28 10:10:48 59° 244° (WSW) 10:16:06 437.095 MHz 1200 baud AX-25 AFSK
FUNcube-1 01 Aug 10:33:06 10:34:47 12° 90° (E) 10:36:27 145.950 - 145.970 MHz USB
PCSat 01 Aug 10:38:59 10:43:38 30° 250° (WSW) 10:48:16 145.825 MHz
HO-68 01 Aug 10:41:48 10:49:00 86° 107° (ESE) 10:56:09 435.675 MHz FM
UKube-1 01 Aug 10:54:21 10:58:44 81° 285° (WNW) 11:03:04 145.840 MHz, 145.915 MHz
KITSAT 1 01 Aug 10:59:20 11:03:46 15° 0° (N) 11:08:11 435.175 FM
SO-50 01 Aug 11:10:50 11:13:23 15° 109° (ESE) 11:15:58 436.795 FM
Oscar 11 01 Aug 11:35:31 11:39:46 53° 287° (WNW) 11:43:59 145.825 FM, Beacon 2401.500 USB
FUNcube-1 01 Aug 12:07:27 12:11:36 63° 286° (WNW) 12:15:47 145.950 - 145.970 MHz USB
JAS-1B 01 Aug 12:16:36 12:20:49 14° 40° (NE) 12:25:04 435.800 - 435.900 CW/SSB
HO-68 01 Aug 12:30:45 12:35:52 22° 306° (NW) 12:40:58 435.675 MHz FM
RS-15 01 Aug 12:31:29 12:41:16 38° 108° (ESE) 12:50:51 29.354 - 29.394 USB, Beacon 29.352 USB
AO-Echo 01 Aug 12:45:05 12:46:21 11° 55° (NE) 12:47:37 ?
SO-50 01 Aug 12:48:56 12:53:23 68° 307° (NW) 12:57:57 436.795 FM
UOSAT-12 01 Aug 12:51:34 12:53:12 12° 107° (ESE) 12:54:52 437.025 FM, 437.400 FM
Oscar 19 01 Aug 12:55:32 12:59:39 25° 64° (ENE) 13:03:48 437.125 CW, 437.150 USB
KITSAT 1 01 Aug 12:56:12 13:02:39 25° 30° (NNE) 13:09:03 435.175 FM
Oscar 16 01 Aug 13:23:42 13:28:33 45° 69° (ENE) 13:33:26 437.025 USB, Beacon 2401.1428
AO-7 01 Aug 13:43:27 13:44:26 10° 35° (NE) 13:45:25 29.400 - 29.500 MHz
ITAMSAT 1 01 Aug 13:52:46 13:57:34 39° 68° (ENE) 14:02:22 435.822 SSB
JAS-1B 01 Aug 14:00:05 14:08:46 46° 62° (ENE) 14:17:58 435.800 - 435.900 CW/SSB
Saudisat 1A 01 Aug 14:05:20 14:07:50 15° 33° (NNE) 14:10:19 436.775 MHz
Uribyol 2 01 Aug 14:10:51 14:15:56 59° 71° (ENE) 14:21:02 436.500 FM
AO-27 01 Aug 14:12:39 14:17:46 59° 71° (ENE) 14:22:54 436.795 MHz FM
AO-Echo 01 Aug 14:18:52 14:24:09 68° 73° (ENE) 14:29:25 ?
UOSAT-12 01 Aug 14:28:00 14:32:37 88° 305° (NW) 14:37:21 437.025 FM, 437.400 FM
TMSAT-1 01 Aug 14:31:03 14:35:29 28° 64° (ENE) 14:39:56 436.925 FM
SO-50 01 Aug 14:32:22 14:34:50 14° 329° (NNW) 14:37:21 436.795 FM
Oscar 19 01 Aug 14:33:52 14:38:45 45° 261° (W) 14:43:40 437.125 CW, 437.150 USB
RS-15 01 Aug 14:41:53 14:52:55 68° 311° (NW) 15:03:51 29.354 - 29.394 USB, Beacon 29.352 USB
KITSAT 1 01 Aug 14:51:22 14:59:30 75° 55° (NE) 15:07:33 435.175 FM
Gurwin Techsat 1B 01 Aug 14:57:02 15:02:15 62° 72° (ENE) 15:07:30 435.225 FM
Oscar 16 01 Aug 15:04:02 15:08:07 24° 267° (W) 15:12:13 437.025 USB, Beacon 2401.1428
AO-7 01 Aug 15:27:21 15:34:52 39° 58° (ENE) 15:42:24 29.400 - 29.500 MHz
ITAMSAT 1 01 Aug 15:32:39 15:37:08 29° 265° (W) 15:41:38 435.822 SSB
Saudisat 1A 01 Aug 15:43:45 15:48:11 75° 54° (NE) 15:52:35 436.775 MHz
JAS-1B 01 Aug 15:50:03 15:58:58 55° 263° (W) 16:08:40 435.800 - 435.900 CW/SSB
Uribyol 2 01 Aug 15:52:13 15:55:48 19° 269° (W) 15:59:24 436.500 FM
AO-27 01 Aug 15:54:02 15:57:40 19° 269° (W) 16:01:18 436.795 MHz FM
AO-Echo 01 Aug 15:59:58 16:03:22 17° 270° (W) 16:06:47 ?
TMSAT-1 01 Aug 16:10:12 16:15:13 42° 262° (W) 16:20:15 436.925 FM
UOSAT-12 01 Aug 16:10:18 16:13:28 18° 325° (NW) 16:16:40 437.025 FM, 437.400 FM
Uosat F 01 Aug 16:19:41 16:24:39 61° 72° (ENE) 16:29:38 435.120 FM
Gurwin Techsat 1B 01 Aug 16:39:02 16:42:39 18° 269° (W) 16:46:17 435.225 FM
KITSAT 1 01 Aug 16:47:45 16:54:08 27° 255° (WSW) 17:00:30 435.175 FM
JAS-2 01 Aug 16:48:25 16:53:09 19° 56° (NE) 16:57:39 435.800 - 435.900 CW/SSB, 435.910 FM
RS-15 01 Aug 16:58:29 17:07:44 30° 340° (NNW) 17:17:01 29.354 - 29.394 USB, Beacon 29.352 USB
AO-7 01 Aug 17:19:15 17:27:24 55° 258° (WSW) 17:35:35 29.400 - 29.500 MHz
OPAL 01 Aug 17:23:46 17:28:49 61° 104° (ESE) 17:33:55 ?
Saudisat 1A 01 Aug 17:25:07 17:27:11 13° 251° (WSW) 17:29:14 436.775 MHz
Hamsat 01 Aug 17:42:35 17:46:13 30° 69° (ENE) 17:49:55 145.90 MHz
JAS-1B 01 Aug 17:49:20 17:51:46 11° 284° (WNW) 17:54:14 435.800 - 435.900 CW/SSB
Uosat F 01 Aug 18:00:34 18:03:51 17° 269° (W) 18:07:09 435.120 FM
